Date,TemperatureHighF,TemperatureAvgF,TemperatureLowF,DewpointHighF,DewpointAvgF,DewpointLowF,HumidityHigh,HumidityAvg,HumidityLow,PressureMaxIn,PressureMinIn,WindSpeedMaxMPH,WindSpeedAvgMPH,GustSpeedMaxMPH,PrecipitationSumIn
2013-3-1,41.7,35.9,32.5,29.6,27.0,24.2,86,71,56,29.96,29.90,5,2,10,0.00
2013-3-2,36.3,32.4,29.5,29.1,26.9,23.0,87,80,67,30.06,29.90,7,3,12,0.07
2013-3-3,44.1,33.5,25.9,23.2,16.8,7.9,76,54,26,30.08,30.00,8,2,14,0.00
2013-3-4,59.2,45.5,29.1,37.6,23.9,18.9,68,46,27,30.06,29.82,11,3,14,0.00
2013-3-5,57.2,48.5,34.5,55.3,42.1,15.6,95,79,48,29.96,29.63,17,5,23,0.81
2013-3-6,44.4,36.4,30.2,27.7,22.7,15.1,74,58,47,30.19,29.96,11,4,17,0.00
2013-3-7,50.4,37.3,27.3,31.7,26.3,19.8,80,66,47,30.26,30.17,8,3,12,0.00
2013-3-8,62.8,45.2,28.2,31.0,23.8,17.0,84,51,21,30.28,30.14,7,2,11,0.00
2013-3-9,69.4,53.8,40.5,36.5,29.8,21.6,64,43,27,30.16,30.00,9,3,14,0.00
2013-3-10,73.8,63.1,51.6,49.5,39.2,32.9,55,44,33,30.03,29.78,18,7,27,0.00
2013-3-11,66.0,50.0,39.4,54.3,45.0,32.1,99,85,54,29.91,29.73,17,4,29,1.49
2013-3-12,58.3,43.8,30.4,35.0,30.5,26.9,91,63,36,30.09,29.90,8,2,14,0.00
2013-3-13,51.4,41.7,32.7,30.5,23.4,15.2,78,52,28,30.28,30.06,10,3,16,0.00
2013-3-14,55.9,41.0,26.4,28.5,19.1,12.3,70,47,22,30.34,30.14,9,2,12,0.00
2013-3-15,77.4,57.7,36.9,45.5,36.9,23.8,66,49,33,30.15,29.88,15,3,20,0.00
2013-3-16,77.2,64.7,54.1,49.1,45.4,40.1,81,53,34,29.90,29.80,13,4,20,0.00
2013-3-17,73.8,62.3,53.4,56.6,50.4,46.0,89,67,41,29.91,29.78,13,3,17,0.00
2013-3-18,63.1,62.1,60.6,61.5,58.5,55.2,98,88,78,29.78,29.71,14,7,21,0.09
2013-3-23,52.3,51.1,49.8,51.6,50.6,49.6,99,98,94,29.79,29.59,10,3,17,2.00
2013-3-24,61.2,51.3,38.1,55.0,46.1,27.6,98,83,63,29.72,29.41,15,6,24,0.53
2013-3-25,38.5,35.2,33.4,27.8,23.6,20.9,75,63,53,30.04,29.72,12,5,18,0.00
2013-3-26,40.5,35.8,31.6,31.2,26.9,23.8,80,70,60,30.24,30.02,8,3,14,0.00
2013-3-27,54.9,40.9,26.8,32.5,26.9,21.9,86,62,32,30.31,30.19,7,2,12,0.00
2013-3-28,63.9,48.2,33.8,36.1,29.6,24.2,79,54,27,30.27,30.17,6,1,11,5.79
2013-3-29,69.3,53.3,38.5,41.8,36.1,29.8,86,57,27,30.21,30.07,11,2,14,56.79
2013-3-30,68.7,56.2,46.4,55.5,48.8,40.3,97,79,49,30.10,29.89,7,2,12,0.65
2013-3-31,64.6,57.0,52.3,61.3,56.3,51.8,99,98,87,29.89,29.80,6,2,9,0.41